Location: Blangy-Tronville
(49.8790°N, 2.4226°E)
Time: 20:41:56
(UTC+00:00)

Cosmos 2084 Rocket - Pass Details

Date: 18 November 2025
Orbit: 549 x 566 km, 62.8° (Epoch: 10 December)

Event Time Altitude Azimuth Distance (km) Brightness Sun altitude
Rises 16:32:54 0° 225° (SW) 2,733 8.5 -5.1°
Reaches altitude 10° 16:35:06 10° 227° (SW) 1,845 7.4 -5.5°
Maximum altitude 16:39:16 80° 314° (NW) 576 3.5 -6.1°
Drops below altitude 10° 16:43:29 10° 43° (NE) 1,866 5.5 -6.7°
Enters shadow 16:44:14 - 43° (NE) 2,170 5.8 -6.8°
